Find OneWeb SL0359

NORAD ID: 49285 Int'l Des: 2021-090 Owner: ONEWEBN Country: UK Constellation: oneweb operational
LEOCIRCULARPOLARONEWEB_TYPE

Live Position

Loading 3D Globe...

About OneWeb SL0359

Description loading...

Upcoming Passes

Passes for default location (London). Set your location on the main map for personalized predictions.

Altitude History

Loading altitude history...

Two-Line Element Set

1 49285U 21090G 26125.45042887 .00000062 00000-0 12139-3 0 9991
2 49285 87.9151 282.9602 0001675 104.5622 255.5697 13.20770724224896
Epoch: May 5, 2026 • Age: 24 hours

Current Status

Altitude 1189.4 km
Velocity 7.26 km/s
Sub-Earth Point 51.73°N, 99.52°W
Launch Date Oct 14, 2021
Age 4.5 years
Type internet

Technical Details

Classification Payload
Mass 148.00 kg
Dry Mass 140.00 kg
Total Mass 148.00 kg
Length 1.30 m
Diameter 1.00 m
Span 5.00 m
Shape Trapezoid+2 pan
Manufacturer ONEWUS
Bus Type ARROW
Phase Status In Orbit
Owner/State ONEWEBN/UK

Most Searched